Date String (YYYY-MM-DD hh:mm:ss) UTC,Instrument flags,Ambient pressure (hPa),Sample flow (lpm),Bypass flow (lpm),Sample temperature (°C),Ambient temperature (°C),ASC tube jacket temperature (°C),LED temperature (°C),Box temperature (°C),Sample RH (%),Span deviation,Mass concentration (μg/m³),Mass concentration (μg/m³),Mass concentration (μg/m³)
DateTimeUTC,F1_M11,P_M11,Q1_M11,Q2_M11,T1_M11,T2_M11,T3_M11,T4_M11,T5_M11,U1_M11,ZSPAN_M11,X0_M11,X2_M11,X1_M11
2021-11-19 23:00:00,,0823.0,4.99,0.00,27.6,26.8,00.0,36.6,29.4,09.5,0000.0,0008.33,0004.16,0003.68
2021-11-19 23:01:00,,0823.1,5.00,0.00,27.6,26.7,00.0,36.6,29.4,09.4,0000.0,0008.31,0004.17,0003.69
2021-11-19 23:02:00,,0823.2,5.00,0.00,27.6,26.7,00.0,36.6,29.2,09.5,0000.0,0008.18,0004.17,0003.69
2021-11-19 23:03:00,,0823.2,5.00,0.00,27.6,26.7,00.0,36.6,29.3,09.5,0000.0,0008.33,0004.19,0003.70
2021-11-19 23:04:00,,0823.3,5.00,0.00,27.6,26.7,00.0,36.6,29.2,09.5,0000.0,0008.30,0004.18,0003.71
2021-11-19 23:05:00,,0823.3,4.99,0.00,27.6,26.7,00.0,36.6,29.3,09.5,0000.0,0008.23,0004.18,0003.71
2021-11-19 23:06:00,,0823.3,5.00,0.00,27.6,26.7,00.0,36.6,29.3,09.5,0000.0,0008.26,0004.18,0003.72
2021-11-19 23:07:00,,0823.3,5.00,0.00,27.6,26.8,00.0,36.6,29.2,09.5,0000.0,0008.18,0004.18,0003.73
2021-11-19 23:08:00,,0823.3,4.99,0.00,27.6,26.8,00.0,36.6,29.3,09.5,0000.0,0008.16,0004.15,0003.73
2021-11-19 23:09:00,,0823.3,5.01,0.00,27.6,26.8,00.0,36.6,29.3,09.5,0000.0,0008.01,0004.15,0003.73
2021-11-19 23:10:00,,0823.3,5.01,0.00,27.6,26.8,00.0,36.6,29.3,09.5,0000.0,0008.07,0004.18,0003.74
2021-11-19 23:11:00,,0823.3,5.00,0.00,27.6,26.8,00.0,36.6,29.3,09.4,0000.0,0008.02,0004.14,0003.73
2021-11-19 23:12:00,,0823.4,4.99,0.00,27.6,26.8,00.0,36.6,29.3,09.5,0000.0,0008.04,0004.15,0003.73
2021-11-19 23:13:00,,0823.3,5.01,0.00,27.6,26.8,00.0,36.6,29.3,09.5,0000.0,0008.02,0004.14,0003.73
2021-11-19 23:14:00,,0823.3,4.99,0.00,27.6,26.8,00.0,36.6,29.4,09.5,0000.0,0007.73,0004.16,0003.74
2021-11-19 23:15:00,,0823.3,5.00,0.00,27.6,26.8,00.0,36.6,29.3,09.5,0000.0,0007.71,0004.18,0003.74
2021-11-19 23:16:00,,0823.4,5.02,0.00,27.6,26.8,00.0,36.6,29.3,09.5,0000.0,0007.56,0004.18,0003.74
2021-11-19 23:17:00,,0823.3,4.98,0.00,27.6,26.8,00.0,36.6,29.3,09.5,0000.0,0007.42,0004.17,0003.73
2021-11-19 23:18:00,,0823.3,5.00,0.00,27.6,26.8,00.0,36.6,29.3,09.6,0000.0,0007.51,0004.16,0003.73
2021-11-19 23:19:00,,0823.4,5.00,0.00,27.6,26.8,00.0,36.6,29.4,09.5,0000.0,0007.55,0004.16,0003.73
2021-11-19 23:20:00,,0823.4,4.99,0.00,27.6,26.8,00.0,36.6,29.4,09.4,0000.0,0007.44,0004.15,0003.72
2021-11-19 23:21:00,,0823.4,5.00,0.00,27.6,26.8,00.0,36.6,29.3,09.5,0000.0,0007.54,0004.15,0003.71
2021-11-19 23:22:00,,0823.3,5.00,0.00,27.6,26.8,00.0,36.6,29.3,09.5,0000.0,0007.54,0004.16,0003.72
2021-11-19 23:23:00,,0823.3,5.00,0.00,27.6,26.8,00.0,36.6,29.4,09.5,0000.0,0007.50,0004.15,0003.73
2021-11-19 23:24:00,,0823.3,5.00,0.00,27.6,26.8,00.0,36.6,29.4,09.5,0000.0,0007.40,0004.13,0003.73
2021-11-19 23:25:00,,0823.4,4.99,0.00,27.7,26.8,00.0,36.6,29.4,09.5,0000.0,0007.24,0004.11,0003.72
2021-11-19 23:26:00,,0823.4,4.99,0.00,27.7,26.8,00.0,36.6,29.4,09.5,0000.0,0006.85,0004.08,0003.71
2021-11-19 23:27:00,,0823.3,5.00,0.00,27.7,26.8,00.0,36.6,29.4,09.5,0000.0,0006.63,0004.04,0003.71
2021-11-19 23:28:00,,0823.3,5.00,0.00,27.7,26.8,00.0,36.7,29.4,09.5,0000.0,0007.25,0004.04,0003.71
2021-11-19 23:29:00,,0823.4,5.01,0.00,27.7,26.8,00.0,36.7,29.5,09.5,0000.0,0007.31,0004.05,0003.69
2021-11-19 23:30:00,,0823.3,5.00,0.00,27.7,26.8,00.0,36.7,29.5,09.5,0000.0,0007.25,0004.06,0003.68
2021-11-19 23:31:00,,0823.4,4.99,0.00,27.7,26.8,00.0,36.7,29.4,09.6,0000.0,0007.20,0004.05,0003.68
2021-11-19 23:32:00,,0823.3,5.00,0.00,27.7,26.8,00.0,36.7,29.4,09.6,0000.0,0006.79,0004.01,0003.67
2021-11-19 23:33:00,,0823.3,5.00,0.00,27.7,26.8,00.0,36.7,29.4,09.6,0000.0,0006.61,0003.98,0003.65
2021-11-19 23:34:00,,0823.4,5.01,0.00,27.7,26.8,00.0,36.7,29.4,09.6,0000.0,0006.63,0003.97,0003.63
2021-11-19 23:35:00,,0823.3,4.99,0.00,27.7,26.8,00.0,36.7,29.4,09.6,0000.0,0006.68,0003.95,0003.61
2021-11-19 23:36:00,,0823.3,4.99,0.00,27.6,26.8,00.0,36.7,29.4,09.6,0000.0,0006.77,0003.95,0003.59
2021-11-19 23:37:00,,0823.4,5.00,0.00,27.6,26.7,00.0,36.7,29.4,09.6,0000.0,0006.87,0003.95,0003.59
2021-11-19 23:38:00,,0823.4,5.00,0.00,27.6,26.7,00.0,36.7,29.4,09.7,0000.0,0006.93,0003.96,0003.58
2021-11-19 23:39:00,,0823.4,5.00,0.00,27.6,26.7,00.0,36.7,29.4,09.7,0000.0,0007.23,0003.97,0003.59
2021-11-19 23:40:00,,0823.3,5.02,0.00,27.6,26.7,00.0,36.6,29.4,09.7,0000.0,0006.98,0003.94,0003.61
2021-11-19 23:41:00,,0823.3,4.99,0.00,27.6,26.7,00.0,36.6,29.3,09.7,0000.0,0006.91,0003.93,0003.62
2021-11-19 23:42:00,,0823.3,4.99,0.00,27.6,26.6,00.0,36.6,29.2,09.8,0000.0,0006.91,0003.94,0003.62
2021-11-19 23:43:00,,0823.4,5.01,0.00,27.6,26.6,00.0,36.6,29.2,09.8,0000.0,0007.41,0003.95,0003.63
2021-11-19 23:44:00,,0823.4,4.98,0.00,27.6,26.6,00.0,36.6,29.3,09.7,0000.0,0007.53,0003.99,0003.64
2021-11-19 23:45:00,,0823.3,5.01,0.00,27.6,26.7,00.0,36.6,29.3,09.6,0000.0,0007.53,0003.97,0003.63
2021-11-19 23:46:00,,0823.3,5.01,0.00,27.6,26.7,00.0,36.6,29.3,09.6,0000.0,0007.57,0004.00,0003.63
2021-11-19 23:47:00,,0823.4,5.00,0.00,27.6,26.7,00.0,36.6,29.3,09.7,0000.0,0007.63,0004.03,0003.64
2021-11-19 23:48:00,,0823.4,5.00,0.00,27.6,26.7,00.0,36.6,29.2,09.7,0000.0,0007.54,0004.00,0003.63
2021-11-19 23:49:00,,0823.4,4.99,0.00,27.6,26.7,00.0,36.6,29.2,09.7,0000.0,0007.45,0003.96,0003.61
2021-11-19 23:50:00,,0823.3,5.00,0.00,27.6,26.7,00.0,36.6,29.3,09.7,0000.0,0006.70,0003.89,0003.56
2021-11-19 23:51:00,,0823.3,5.00,0.00,27.6,26.7,00.0,36.6,29.4,09.7,0000.0,0006.51,0003.86,0003.51
2021-11-19 23:52:00,,0823.3,5.01,0.00,27.6,26.6,00.0,36.6,29.3,09.7,0000.0,0006.44,0003.82,0003.46
2021-11-19 23:53:00,,0823.3,5.00,0.00,27.6,26.6,00.0,36.6,29.3,09.7,0000.0,0006.47,0003.80,0003.42
2021-11-19 23:54:00,,0823.3,5.00,0.00,27.6,26.6,00.0,36.6,29.3,09.7,0000.0,0005.94,0003.75,0003.38
2021-11-19 23:55:00,,0823.4,4.99,0.00,27.5,26.6,00.0,36.6,29.3,09.8,0000.0,0005.83,0003.69,0003.34
2021-11-19 23:56:00,,0823.4,5.01,0.00,27.5,26.6,00.0,36.6,29.3,09.8,0000.0,0006.23,0003.67,0003.32
2021-11-19 23:57:00,,0823.4,5.00,0.00,27.5,26.6,00.0,36.6,29.3,09.8,0000.0,0006.21,0003.66,0003.31
2021-11-19 23:58:00,,0823.6,5.00,0.00,27.5,26.6,00.0,36.6,29.3,09.8,0000.0,0006.20,0003.62,0003.29
2021-11-19 23:59:00,,0823.7,5.00,0.00,27.5,26.5,00.0,36.6,29.2,09.8,0000.0,0007.10,0003.61,0003.28
